Location: Aalen
(48.8330°N, 10.1000°E)
Time: 18:48:40
(UTC+02:00)

Transit 4A - Pass Details

Date: 05 August 2021
Orbit: 871 x 974 km, 66.8° (Epoch: 16 September)

Event Time Altitude Azimuth Distance (km) Brightness Sun altitude
Rises 04:45:11 0° 305° (NW) 3,468 10.8 -10.8°
Reaches altitude 10° 04:49:15 10° 333° (NNW) 2,529 10.4 -10.2°
Maximum altitude 04:51:54 13° 0° (N) 2,315 10.6 -9.9°
Drops below altitude 10° 04:54:33 10° 28° (NNE) 2,537 11.4 -9.6°
Sets 04:58:39 0° 55° (NE) 3,489 13.3 -9.1°
